When you browse on this site, cookies collect data to enhance your experience and personalize the content and advertising you see.
Visit our Privacy Policy to learn more. By continuing to use the site, you agree to this use of cookies and data.
  • în România
  • Lista ţărilor
  • Pe 7 zile
  • Temperatura apei
  • Hartă satelitară
  • Meteo pe hartă
  • Widget-uri
  • user-avatar
    Intrare

    Meteo pe oră la Saint-Ouen

    Astăzi, 20 Iunie, Joi

    Timp Temperatura Precipitaţii Vânt Presiune Umiditate
    00:00 +19°C° 0 mm 1 m/s 754 mmHg 78%
    01:00 +18°C° 0.1 mm 1 m/s 754 mmHg 79%
    02:00 +18°C° 0.1 mm 1 m/s 754 mmHg 80%
    03:00 +16°C° 0.1 mm 1 m/s 754 mmHg 81%
    04:00 +16°C° 0 mm 2 m/s 754 mmHg 81%
    05:00 +17°C° 0 mm 2 m/s 755 mmHg 82%
    06:00 +17°C° 0 mm 3 m/s 755 mmHg 85%
    07:00 +17°C° 0.1 mm 3 m/s 755 mmHg 83%
    08:00 +17°C° 0.1 mm 3 m/s 756 mmHg 82%
    09:00 +17°C° 0.1 mm 3 m/s 756 mmHg 81%
    10:00 +18°C° 0 mm 3 m/s 756 mmHg 71%
    11:00 +20°C° 0 mm 3 m/s 756 mmHg 61%
    12:00 +22°C° 0 mm 4 m/s 757 mmHg 51%
    13:00 +22°C° 0 mm 4 m/s 757 mmHg 50%
    14:00 +22°C° 0 mm 4 m/s 756 mmHg 48%
    15:00 +22°C° 0 mm 4 m/s 756 mmHg 47%
    16:00 +22°C° 0 mm 4 m/s 757 mmHg 49%
    17:00 +21°C° 0 mm 3 m/s 757 mmHg 51%
    18:00 +20°C° 0 mm 3 m/s 757 mmHg 53%
    19:00 +19°C° 0 mm 3 m/s 757 mmHg 58%
    20:00 +18°C° 0 mm 2 m/s 758 mmHg 63%
    21:00 +17°C° 0 mm 2 m/s 758 mmHg 67%
    22:00 +16°C° 0 mm 2 m/s 759 mmHg 70%
    23:00 +16°C° 0 mm 2 m/s 759 mmHg 72%

    Mâine, 21 Iunie, Vineri

    Timp Temperatura Precipitaţii Vânt Presiune Umiditate
    00:00 +15°C° 0 mm 1 m/s 759 mmHg 75%
    01:00 +15°C° 0 mm 1 m/s 759 mmHg 76%
    02:00 +14°C° 0 mm 1 m/s 759 mmHg 77%
    03:00 +14°C° 0 mm 1 m/s 759 mmHg 78%
    04:00 +14°C° 0 mm 1 m/s 759 mmHg 76%
    05:00 +15°C° 0 mm 1 m/s 760 mmHg 74%
    06:00 +15°C° 0 mm 1 m/s 760 mmHg 72%
    07:00 +18°C° 0 mm 1 m/s 760 mmHg 64%
    08:00 +19°C° 0 mm 1 m/s 760 mmHg 57%
    09:00 +21°C° 0 mm 1 m/s 761 mmHg 49%
    10:00 +21°C° 0 mm 2 m/s 760 mmHg 46%
    11:00 +23°C° 0 mm 2 m/s 760 mmHg 43%
    12:00 +24°C° 0 mm 2 m/s 760 mmHg 40%
    13:00 +24°C° 0 mm 3 m/s 760 mmHg 42%
    14:00 +22°C° 0 mm 3 m/s 760 mmHg 44%
    15:00 +22°C° 0 mm 4 m/s 760 mmHg 46%
    16:00 +22°C° 0 mm 4 m/s 760 mmHg 50%
    17:00 +21°C° 0 mm 4 m/s 760 mmHg 54%
    18:00 +20°C° 0 mm 4 m/s 760 mmHg 58%
    19:00 +19°C° 0 mm 4 m/s 760 mmHg 62%
    20:00 +17°C° 0 mm 3 m/s 761 mmHg 66%
    21:00 +16°C° 0 mm 3 m/s 761 mmHg 70%
    22:00 +14°C° 0 mm 3 m/s 761 mmHg 70%
    23:00 +14°C° 0 mm 3 m/s 761 mmHg 70%

    Poimâine, 22 Iunie, Sâmbătă

    Timp Temperatura Precipitaţii Vânt Presiune Umiditate
    00:00 +13°C° 0 mm 3 m/s 761 mmHg 70%
    01:00 +13°C° 0 mm 3 m/s 761 mmHg 72%
    02:00 +13°C° 0 mm 2 m/s 760 mmHg 75%
    03:00 +13°C° 0 mm 2 m/s 760 mmHg 77%
    04:00 +13°C° 0 mm 2 m/s 760 mmHg 75%
    05:00 +13°C° 0 mm 3 m/s 760 mmHg 74%
    06:00 +13°C° 0 mm 3 m/s 760 mmHg 72%
    07:00 +16°C° 0 mm 3 m/s 760 mmHg 67%
    08:00 +18°C° 0 mm 3 m/s 760 mmHg 62%
    09:00 +20°C° 0 mm 3 m/s 760 mmHg 57%
    10:00 +21°C° 0 mm 3 m/s 759 mmHg 54%
    11:00 +24°C° 0 mm 3 m/s 759 mmHg 50%
    12:00 +25°C° 0 mm 3 m/s 759 mmHg 46%
    13:00 +26°C° 0 mm 3 m/s 759 mmHg 47%
    14:00 +26°C° 0 mm 3 m/s 758 mmHg 48%
    15:00 +26°C° 0 mm 3 m/s 758 mmHg 49%
    16:00 +26°C° 0 mm 3 m/s 758 mmHg 52%
    17:00 +25°C° 0 mm 3 m/s 758 mmHg 56%
    18:00 +25°C° 0 mm 3 m/s 757 mmHg 60%
    19:00 +24°C° 0 mm 2 m/s 758 mmHg 64%
    20:00 +23°C° 0 mm 2 m/s 758 mmHg 69%
    21:00 +21°C° 0 mm 2 m/s 758 mmHg 73%
    22:00 +20°C° 0 mm 2 m/s 758 mmHg 75%
    23:00 +20°C° 0 mm 2 m/s 758 mmHg 78%

    23 Iunie, Duminică

    Timp Temperatura Precipitaţii Vânt Presiune Umiditate
    00:00 +19°C° 0 mm 2 m/s 758 mmHg 80%
    01:00 +19°C° 0 mm 2 m/s 757 mmHg 82%
    02:00 +18°C° 0 mm 2 m/s 757 mmHg 83%
    03:00 +18°C° 0 mm 2 m/s 757 mmHg 85%
    04:00 +18°C° 0 mm 2 m/s 757 mmHg 84%
    05:00 +19°C° 0 mm 2 m/s 757 mmHg 83%
    06:00 +19°C° 0 mm 2 m/s 757 mmHg 82%
    07:00 +21°C° 0 mm 3 m/s 757 mmHg 76%
    08:00 +22°C° 0 mm 3 m/s 757 mmHg 71%
    09:00 +25°C° 0 mm 3 m/s 757 mmHg 65%
    10:00 +26°C° 0 mm 4 m/s 757 mmHg 61%
    11:00 +27°C° 0 mm 4 m/s 757 mmHg 56%
    12:00 +28°C° 0 mm 4 m/s 757 mmHg 52%
    13:00 +28°C° 0 mm 4 m/s 757 mmHg 53%
    14:00 +29°C° 0 mm 4 m/s 756 mmHg 53%
    15:00 +29°C° 0 mm 4 m/s 756 mmHg 54%
    16:00 +28°C° 0 mm 4 m/s 756 mmHg 57%
    17:00 +28°C° 0 mm 4 m/s 756 mmHg 60%
    18:00 +28°C° 0 mm 3 m/s 756 mmHg 63%
    19:00 +27°C° 0 mm 3 m/s 756 mmHg 68%
    20:00 +26°C° 0 mm 3 m/s 756 mmHg 73%
    21:00 +25°C° 0 mm 3 m/s 756 mmHg 78%
    22:00 +24°C° 0 mm 3 m/s 756 mmHg 80%
    23:00 +22°C° 0 mm 3 m/s 756 mmHg 81%

    24 Iunie, Luni

    Timp Temperatura Precipitaţii Vânt Presiune Umiditate
    00:00 +22°C° 0 mm 3 m/s 756 mmHg 83%
    01:00 +21°C° 0 mm 2 m/s 756 mmHg 83%
    02:00 +21°C° 0 mm 2 m/s 756 mmHg 84%
    03:00 +21°C° 0 mm 2 m/s 756 mmHg 84%
    04:00 +22°C° 0 mm 1 m/s 757 mmHg 81%
    05:00 +23°C° 0 mm 1 m/s 757 mmHg 78%
    06:00 +23°C° 0 mm 1 m/s 757 mmHg 75%
    07:00 +25°C° 0 mm 1 m/s 757 mmHg 68%
    08:00 +27°C° 0 mm 1 m/s 758 mmHg 60%
    09:00 +29°C° 0 mm 1 m/s 758 mmHg 53%
    10:00 +30°C° 0 mm 2 m/s 758 mmHg 50%
    11:00 +31°C° 0 mm 3 m/s 758 mmHg 47%
    12:00 +34°C° 0 mm 3 m/s 758 mmHg 44%
    13:00 +34°C° 0 mm 3 m/s 758 mmHg 45%
    14:00 +34°C° 0 mm 4 m/s 758 mmHg 46%
    15:00 +34°C° 0 mm 4 m/s 757 mmHg 46%
    16:00 +34°C° 0 mm 4 m/s 757 mmHg 51%
    17:00 +33°C° 0 mm 3 m/s 757 mmHg 55%
    18:00 +31°C° 0 mm 3 m/s 757 mmHg 59%
    19:00 +30°C° 0 mm 3 m/s 757 mmHg 65%
    20:00 +29°C° 0 mm 3 m/s 758 mmHg 71%
    21:00 +27°C° 0 mm 3 m/s 758 mmHg 77%
    22:00 +27°C° 0 mm 3 m/s 758 mmHg 78%
    23:00 +26°C° 0 mm 3 m/s 757 mmHg 78%

    25 Iunie, Marţi

    Timp Temperatura Precipitaţii Vânt Presiune Umiditate
    00:00 +25°C° 0 mm 3 m/s 757 mmHg 79%
    01:00 +25°C° 0 mm 3 m/s 757 mmHg 79%
    02:00 +24°C° 0 mm 2 m/s 757 mmHg 79%
    03:00 +24°C° 0 mm 2 m/s 756 mmHg 79%
    04:00 +24°C° 0 mm 3 m/s 756 mmHg 76%
    05:00 +25°C° 0 mm 3 m/s 756 mmHg 74%
    06:00 +25°C° 0 mm 3 m/s 756 mmHg 72%
    07:00 +27°C° 0 mm 3 m/s 757 mmHg 67%
    08:00 +28°C° 0 mm 3 m/s 757 mmHg 61%
    09:00 +30°C° 0 mm 3 m/s 757 mmHg 56%
    10:00 +31°C° 0 mm 3 m/s 757 mmHg 52%
    11:00 +34°C° 0 mm 3 m/s 757 mmHg 47%
    12:00 +35°C° 0 mm 3 m/s 757 mmHg 43%
    13:00 +36°C° 0 mm 3 m/s 757 mmHg 41%
    14:00 +36°C° 0 mm 3 m/s 758 mmHg 40%
    15:00 +37°C° 0 mm 3 m/s 758 mmHg 38%
    16:00 +36°C° 0 mm 3 m/s 758 mmHg 41%
    17:00 +35°C° 0 mm 2 m/s 758 mmHg 43%
    18:00 +34°C° 0 mm 2 m/s 758 mmHg 46%
    19:00 +32°C° 0 mm 2 m/s 759 mmHg 51%
    20:00 +30°C° 0 mm 1 m/s 759 mmHg 56%
    21:00 +28°C° 0 mm 1 m/s 760 mmHg 61%
    22:00 +28°C° 0 mm 1 m/s 760 mmHg 63%
    23:00 +27°C° 0 mm 1 m/s 760 mmHg 65%
    Arată mai mult